National Weather Service Raw Text Product

Displaying AFOS PIL: RWRIA Received: 2017-11-15 08:00 UTC


442 
ASUS43 KDMX 150806
RWRIA 

WEATHER ROUNDUP FOR IOWA
NATIONAL WEATHER SERVICE DES MOINES IA
200 AM CST WED NOV 15 2017

NOTE: "FAIR" INDICATES FEW OR NO CLOUDS BELOW 12,000 FEET WITH NO
SIGNIFICANT WEATHER AND/OR OBSTRUCTIONS TO VISIBILITY.

* - THESE STATIONS ARE NOT NWS STATIONS...THUS NOT UNDER NWS
QUALITY CONTROL.  THEY ALSO DO NOT REPORT WEATHER SUCH 
AS PRECIPITATION OR FOG.  

IAZ001>003-012>014-020>022-031>034-043>046-150900-
   NORTHWEST IOWA
  
CITY           SKY/WX    TMP DP  RH WIND       PRES   REMARKS
CARROLL *      CLOUDY    52  48  87 NW18      29.87R                  
CHEROKEE *     CLOUDY    47  44  91 NW18G28   29.89R                  
DENISON *      CLOUDY    48  45  87 NW8       29.92R                  
LE MARS *      CLOUDY    45  39  81 NW15      29.94R                  
ORANGE CITY *  PTCLDY    43  39  87 NW13G20   29.92R                  
SHELDON *      MOCLDY    43  39  87 NW18G25   29.89R                  
SIOUX CITY     CLOUDY    45  41  86 NW20G29   29.94R                  
SPENCER        CLOUDY    47  43  86 NW20G28   29.87R                  
STORM LAKE *   CLOUDY    46  45  93 NW17G24   29.87R                  
$$
 
IAZ055>058-069>071-079>083-090>094-150900-
   SOUTHWEST IOWA
  
CITY           SKY/WX    TMP DP  RH WIND       PRES   REMARKS
ATLANTIC *     CLOUDY    54  54 100 W10       29.88S                  
AUDUBON *      CLOUDY    52  48  87 W12       29.88S                  
CLARINDA *       N/A     54  54 100 W6          N/A  FOG              
COUNCIL BLFS * CLOUDY    50  50 100 NW17      29.90S                  
CRESTON *      CLOUDY    52  52 100 W9        29.89R FOG              
HARLAN  *      MOCLDY    50  50 100 NW13      29.92R                  
LAMONI         CLOUDY    51  51 100 S5        29.87F FOG              
RED OAK *      CLOUDY    54  54 100 W8        29.89S                  
SHENANDOAH *   CLOUDY    54  54 100 W5        29.90S FOG              
$$
 
IAZ047>049-059>061-072>074-084-150900-
   CENTRAL IOWA
  
CITY           SKY/WX    TMP DP  RH WIND       PRES   REMARKS
AMES           CLOUDY    52  52 100 W9        29.85R FOG              
ANKENY *       CLOUDY    52  50  93 SW5       29.87R FOG              
BOONE *        CLOUDY    52  52 100 W12       29.84S FOG              
CHARITON *     CLOUDY    50  50 100 S9        29.85F FOG              
DES MOINES     DRIZZLE   52  51  97 SW9       29.86R FOG              
GRINNELL*      CLOUDY    48  47  97 S12       29.85F FOG              
KNOXVILLE *    CLOUDY    50  50 100 S12       29.83F FOG              
MARSHALLTOWN   CLOUDY    50  50 100 S12       29.84R                  
NEWTON *       CLOUDY    50  50 100 SW8       29.86R FOG              
PELLA *        CLOUDY    49  49  97 S8        29.86F FOG              
PERRY *        CLOUDY    53  52  98 W8        29.86F                  
$$
 
IAZ004>006-015-016-023>025-035-036-150900-
   NORTH CENTRAL IOWA
  
CITY           SKY/WX    TMP DP  RH WIND       PRES   REMARKS
ALGONA *       CLOUDY    50  50 100 W12       29.83R                  
CLARION *      CLOUDY    50  50 100 W12       29.82S                  
ESTHERVILLE    CLOUDY    46  45  96 NW18G25   29.85R                  
FORT DODGE *   CLOUDY    50  48  93 W12       29.84S                  
MASON CITY     CLOUDY    50  48  93 SW8       29.81F                  
FOREST CITY *  CLOUDY    50  50 100 W7        29.80F                  
WEBSTER CITY * CLOUDY    52  52 100 W14       29.81F                  
IOWA FALLS *   DRIZZLE   50  49  97 SW6       29.84S                  
$$

IAZ007>011-017>019-026>030-037>042-050>054-066-150900-
   NORTHEAST IOWA
  
CITY           SKY/WX    TMP DP  RH WIND       PRES   REMARKS
CEDAR RAPIDS   CLOUDY    47  47 100 S9        29.86F FOG              
CHARLES CITY * FOG       48  48 100 S9        29.82F VSB 1            
DECORAH *      CLOUDY    45  45 100 S12       29.81F FOG              
DUBUQUE        LGT RAIN  44  40  85 S13       29.87F                  
MONTICELLO *   CLOUDY    45  43  93 S9        29.87S                  
OELWEIN *      CLOUDY    45  45 100 S14       29.84F FOG              
WATERLOO       CLOUDY    47  47 100 S9        29.83F FOG              
$$
 
IAZ064-065-067-068-078-150900-
   EAST CENTRAL IOWA
  
CITY           SKY/WX    TMP DP  RH WIND       PRES   REMARKS
DAVENPORT      CLOUDY    47  39  74 S7        29.93F                  
IOWA CITY      LGT RAIN  48  45  89 SE8       29.89F                  
MT. PLEASANT * LGT RAIN  47  43  87 S9        29.90F                  
MUSCATINE *    CLOUDY    46  43  87 S5        29.91F                  
QUAD CITIES    CLOUDY    50  38  63 S6        29.91F                  
$$
 
IAZ062-063-075>077-085>089-095>099-150900-
   SOUTHEAST IOWA
  
CITY           SKY/WX    TMP DP  RH WIND       PRES   REMARKS
BURLINGTON     CLOUDY    49  41  74 S9        29.91F                  
FAIRFIELD *    CLOUDY    48  48 100 S9        29.87F FOG              
FORT MADISON * CLOUDY    48  45  87 S7        29.91F                  
KEOKUK *       CLOUDY    50  46  87 S9G16     29.91F FOG              
OSKALOOSA *    CLOUDY    48  47  99 S10       29.87F FOG              
OTTUMWA        LGT RAIN  50  49  96 S8        29.87F FOG              
WASHINGTON *   CLOUDY    48  46  93 S10       29.89F FOG              
$$

ABBREVIATIONS USED IN REMARKS
   TC - TEMPERATURES IN CELSIUS
  WCI - WIND CHILL INDEX
   HX - HEAT INDEX
  VSB - VISIBILITY  
$$

  

420 
ASUS43 KDMX 150801
RWRIA 

WEATHER ROUNDUP FOR IOWA
NATIONAL WEATHER SERVICE DES MOINES IA
200 AM CST WED NOV 15 2017

NOTE: "FAIR" INDICATES FEW OR NO CLOUDS BELOW 12,000 FEET WITH NO
SIGNIFICANT WEATHER AND/OR OBSTRUCTIONS TO VISIBILITY.

* - THESE STATIONS ARE NOT NWS STATIONS...THUS NOT UNDER NWS
QUALITY CONTROL.  THEY ALSO DO NOT REPORT WEATHER SUCH 
AS PRECIPITATION OR FOG.  

IAZ001>003-012>014-020>022-031>034-043>046-150900-
   NORTHWEST IOWA
  
CITY           SKY/WX    TMP DP  RH WIND       PRES   REMARKS
CARROLL *      CLOUDY    52  48  87 NW18      29.87R                  
CHEROKEE *     CLOUDY    47  44  91 NW18G28   29.89R                  
DENISON *      CLOUDY    48  45  87 NW8       29.92R                  
LE MARS *      CLOUDY    45  39  81 NW15      29.94R                  
ORANGE CITY *  PTCLDY    43  39  87 NW13G20   29.92R                  
SHELDON *      MOCLDY    43  39  87 NW18G25   29.89R                  
SIOUX CITY     CLOUDY    45  41  86 NW20G29   29.94R                  
SPENCER        CLOUDY    47  43  86 NW20G28   29.87R                  
STORM LAKE *   CLOUDY    46  45  93 NW17G24   29.87R                  
$$
 
IAZ055>058-069>071-079>083-090>094-150900-
   SOUTHWEST IOWA
  
CITY           SKY/WX    TMP DP  RH WIND       PRES   REMARKS
ATLANTIC *     CLOUDY    54  54 100 W10       29.88S                  
AUDUBON *      CLOUDY    52  48  87 W12       29.88S                  
CLARINDA *       N/A     54  54 100 W6          N/A  FOG              
COUNCIL BLFS * CLOUDY    50  50 100 NW17      29.90S                  
CRESTON *      CLOUDY    52  52 100 W9        29.89R FOG              
HARLAN  *      MOCLDY    50  50 100 NW13      29.92R                  
LAMONI         CLOUDY    51  51 100 S5        29.87F FOG              
RED OAK *      CLOUDY    54  54 100 W8        29.89S                  
SHENANDOAH *   CLOUDY    54  54 100 W5        29.90S FOG              
$$
 
IAZ047>049-059>061-072>074-084-150900-
   CENTRAL IOWA
  
CITY           SKY/WX    TMP DP  RH WIND       PRES   REMARKS
AMES           CLOUDY    52  52 100 W9        29.85R FOG              
ANKENY *       CLOUDY    52  50  93 SW5       29.87R FOG              
BOONE *        CLOUDY    52  52 100 W12       29.84S FOG              
CHARITON *     CLOUDY    50  50 100 S9        29.85F FOG              
DES MOINES     DRIZZLE   52  51  97 SW9       29.86R FOG              
GRINNELL*      CLOUDY    48  47  97 S12       29.85F FOG              
KNOXVILLE *    CLOUDY    50  50 100 S12       29.83F FOG              
MARSHALLTOWN   CLOUDY    50  50 100 S12       29.84R                  
NEWTON *       CLOUDY    50  50 100 SW8       29.86R FOG              
PELLA *        CLOUDY    49  49  97 S8        29.86F FOG              
PERRY *        CLOUDY    53  52  98 W8        29.86F                  
$$
 
IAZ004>006-015-016-023>025-035-036-150900-
   NORTH CENTRAL IOWA
  
CITY           SKY/WX    TMP DP  RH WIND       PRES   REMARKS
ALGONA *       CLOUDY    50  50 100 W12       29.83R                  
CLARION *      CLOUDY    50  50 100 W12       29.82S                  
ESTHERVILLE    CLOUDY    46  45  96 NW18G25   29.85R                  
FORT DODGE *   CLOUDY    50  48  93 W12       29.84S                  
MASON CITY     CLOUDY    50  48  93 SW8       29.81F                  
FOREST CITY *  CLOUDY    50  50 100 W7        29.80F                  
WEBSTER CITY * CLOUDY    52  52 100 W14       29.81F                  
IOWA FALLS *   DRIZZLE   50  49  97 SW6       29.84S                  
$$

IAZ007>011-017>019-026>030-037>042-050>054-066-150900-
   NORTHEAST IOWA
  
CITY           SKY/WX    TMP DP  RH WIND       PRES   REMARKS
CEDAR RAPIDS   CLOUDY    47  47 100 S9        29.86F FOG              
CHARLES CITY * FOG       48  48 100 S9        29.82F VSB 1            
DECORAH *      CLOUDY    45  45 100 S12       29.81F FOG              
DUBUQUE        LGT RAIN  44  40  85 S13       29.87F                  
MONTICELLO *   CLOUDY    45  43  93 S9        29.87S                  
OELWEIN *      CLOUDY    45  45 100 S14       29.84F FOG              
WATERLOO       CLOUDY    47  47 100 S9        29.83F FOG              
$$
 
IAZ064-065-067-068-078-150900-
   EAST CENTRAL IOWA
  
CITY           SKY/WX    TMP DP  RH WIND       PRES   REMARKS
DAVENPORT      CLOUDY    47  39  74 S7        29.93F                  
IOWA CITY      LGT RAIN  48  45  89 SE8       29.89F                  
MT. PLEASANT * LGT RAIN  47  43  87 S9        29.90F                  
MUSCATINE *    CLOUDY    46  43  87 S5        29.91F                  
QUAD CITIES    CLOUDY    50  38  63 S6        29.91F                  
$$
 
IAZ062-063-075>077-085>089-095>099-150900-
   SOUTHEAST IOWA
  
CITY           SKY/WX    TMP DP  RH WIND       PRES   REMARKS
BURLINGTON     CLOUDY    49  41  74 S9        29.91F                  
FAIRFIELD *    CLOUDY    48  48 100 S9        29.87F FOG              
FORT MADISON * CLOUDY    48  45  87 S7        29.91F                  
KEOKUK *       CLOUDY    50  46  87 S9G16     29.91F FOG              
OSKALOOSA *    CLOUDY    48  47  99 S10       29.87F FOG              
OTTUMWA        LGT RAIN  50  49  96 S8        29.87F FOG              
WASHINGTON *   CLOUDY    48  46  93 S10       29.89F FOG              
$$

ABBREVIATIONS USED IN REMARKS
   TC - TEMPERATURES IN CELSIUS
  WCI - WIND CHILL INDEX
   HX - HEAT INDEX
  VSB - VISIBILITY  
$$